Content
SEND FEEDBACK

Daily
Averages
Monthly
Summary
Canada

MONTREAL, QUEBEC


Home > North America > Canada > Quebec
Elevation: 118 feet     Latitude: 45 28N     Longitude: 073 45W

WEATHER
 
SELECT A DAY
Number of Records: 198,177;   Date Range: 1/1/95 - 7/30/14
 
SHARE

PRINT THIS DATA

[ ← Previous Day ]
WEATHER ALMANAC - OCTOBER 1, 2013
[ Next Day → ]
[ °C ]   °F
Weather ElementAverageHighLow
Temperature63.9 °F73.4 °F (3:00 pm)53.6 °F (4:00 am)
Dewpoint54.7 °F60.8 °F (2:00 pm)49 °F (2:00 am)
Humidity71.4 %88 % (4:00 am)53 % (8:00 pm)
Barometer29.93 in29.98 in (7:00 am)29.85 in (11:00 pm)
Wind Speed7.8 mph15 mph (6:00 pm)
Weather ElementAverage
Visibility15 mi
Wind DirectionS (176.3 °)

Weather ElementTotal
Precipitation---
Heating Degree Days1.5 (Base 65)
Growing Degree Days13.5 (Base 50)
Averaged from 27 records on October 1, 2013
WEATHER CONDITIONS BREAKOUT
WIND DIRECTION BREAKOUT
WEATHER BY HOUR - OCTOBER 1, 2013
[ °C ]   °F
Local TimeTemperatureDewpointHumidityBarometerVisibilityWind DirectionWind SpeedGust SpeedPrecipitationEventsConditions
1:00 AM59.0 °F50.0 °F72 %29.97 in15.0 miESE (120°)3.5 mphPartly Cloudy
2:00 AM59.0 °F49.0 °F61 %29.97 in15.0 miSSE (160°)1.2 mphClear
2:00 AM59.0 °F50.0 °F72 %29.97 in15.0 miSE (140°)2.3 mphScattered Clouds
3:00 AM55.4 °F50.0 °F82 %29.96 in15.0 miNNW (330°)2.3 mphScattered Clouds
4:00 AM53.6 °F50.0 °F88 %29.96 in15.0 miNE (50°)2.3 mphPartly Cloudy
5:00 AM55.4 °F51.8 °F88 %29.97 in15.0 miVariable2.3 mphMostly Cloudy
6:00 AM57.2 °F51.8 °F82 %29.97 in15.0 miCalmMostly Cloudy
7:00 AM57.2 °F51.8 °F82 %29.98 in15.0 miCalmMostly Cloudy
8:00 AM58.0 °F54.0 °F82 %29.98 in15.0 miSE (140°)5.8 mphMostly Cloudy
8:00 AM59.0 °F53.6 °F82 %29.98 in15.0 miSE (140°)6.9 mphMostly Cloudy
9:00 AM60.8 °F53.6 °F77 %29.98 in15.0 miSouth (180°)5.8 mphMostly Cloudy
10:00 AM60.8 °F53.6 °F77 %29.98 in15.0 miSW (220°)6.9 mphOvercast
11:00 AM64.4 °F55.4 °F73 %29.97 in15.0 miSSW (210°)5.8 mphScattered Clouds
12:00 PM68.0 °F57.2 °F68 %29.95 in15.0 miSSW (200°)8.1 mphPartly Cloudy
1:00 PM69.8 °F59.0 °F68 %29.92 in15.0 miSSW (210°)10.4 mphPartly Cloudy
2:00 PM72.0 °F60.0 °F58 %29.91 in15.0 miSSW (210°)10.4 mphPartly Cloudy
2:00 PM71.6 °F60.8 °F69 %29.91 in15.0 miSSW (200°)12.7 mphScattered Clouds
3:00 PM73.4 °F60.8 °F65 %29.89 in15.0 miSouth (190°)9.2 mphScattered Clouds
4:00 PM73.4 °F59.0 °F61 %29.87 in15.0 miSSW (210°)12.7 mphPartly Cloudy
5:00 PM73.4 °F59.0 °F61 %29.86 in15.0 miSW (220°)12.7 mphPartly Cloudy
6:00 PM71.6 °F57.2 °F60 %29.86 in15.0 miSW (230°)15.0 mphPartly Cloudy
7:00 PM68.0 °F55.4 °F64 %29.87 in15.0 miWSW (240°)10.4 mphPartly Cloudy
8:00 PM67.0 °F54.0 °F53 %29.87 in15.0 miWSW (250°)13.8 mphScattered Clouds
8:00 PM68.0 °F53.6 °F60 %29.87 in15.0 miWSW (250°)13.8 mphPartly Cloudy
9:00 PM64.4 °F55.4 °F73 %29.87 in15.0 miSW (230°)11.5 mphMostly Cloudy
10:00 PM64.4 °F55.4 °F73 %29.86 in15.0 miSW (220°)13.8 mphMostly Cloudy
11:00 PM62.6 °F55.4 °F77 %29.85 in15.0 miSSW (210°)10.4 mphMostly Cloudy
Hourly data recorded from CYUL, located miles away from Montreal, Quebec







STORIES FROM OUR PARTNERS